sat.trackr.live / text

‹ back to catalog

STARLINK-6133

NORAD 57134 · 2023-090AK

PAYLOAD ACTIVE UNKNOWN

§ Identity

Operator
Country
US
Launch date
2023-06-23
Launch site
AFETR
Launch vehicle
Mass (kg)
RCS (m²)

Purposes: comms

External: N2YO · Heavens-Above · Gunter

§ Orbital elements

Epoch: 2026-09-20T23:25:02.708256Z

Period
94.27 min
Inclination
43.0069°
Eccentricity
0.0001502
Mean motion
15.27587247 rev/d
Perigee alt
482.0 km
Apogee alt
484.1 km
Semi-major
6,861.2 km
B*
1.4409e-4
RAAN
240.1470°
Arg perigee
259.8258°
Mean anomaly
100.2424°
Rev number
18,022

§ Raw data

STARLINK-61331 57134U 23090AK  26263.97572579  .00003706  00000+0  14409-3 0  99902 57134  43.0069 240.1470 0001502 259.8258 100.2424 15.27587247180223

JSON: /api/v1/satellites/57134 · /tle

For live sub-satellite position, see the globe view (requires WebGL).

§ Visibility from observer

Set your observer location to see the next 7 days of passes ≥ 10°. The values pass through the URL so the page stays shareable.

No JS? Fill the form by hand. The geolocation button needs JavaScript.